Time,TemperatureF,DewpointF,PressureIn,WindDirection,WindDirectionDegrees,WindSpeedMPH,WindSpeedGustMPH,Humidity,HourlyPrecipIn,Conditions,Clouds,dailyrainin,SoftwareType,DateUTC
2013-08-27 00:02:00,59.0,49.0,-100.00,West,270,4.0,4.0,68,-99.99,,,0.00,,2013-08-27 06:02:00,
2013-08-27 00:12:00,59.0,49.0,-100.00,West,270,4.0,4.0,68,-99.99,,,0.00,,2013-08-27 06:12:00,
2013-08-27 00:21:00,59.0,49.0,-100.00,West,270,4.0,4.0,68,-99.99,,,0.00,,2013-08-27 06:21:00,
2013-08-27 00:52:00,60.0,50.0,-100.00,North,-999,0.0,0.0,70,-99.99,,,0.00,,2013-08-27 06:52:00,
2013-08-27 01:12:00,60.0,50.0,-100.00,North,-999,0.0,0.0,70,-99.99,,,0.00,,2013-08-27 07:12:00,
2013-08-27 01:21:00,60.0,50.0,-100.00,North,-999,0.0,0.0,70,-99.99,,,0.00,,2013-08-27 07:21:00,
2013-08-27 01:52:00,57.0,49.0,-100.00,WSW,245,4.0,5.0,75,-99.99,,,0.00,,2013-08-27 07:52:00,
2013-08-27 02:11:00,57.0,49.0,-100.00,WSW,245,4.0,5.0,75,-99.99,,,0.00,,2013-08-27 08:11:00,
2013-08-27 02:22:00,57.0,49.0,-100.00,WSW,245,4.0,5.0,75,-99.99,,,0.00,,2013-08-27 08:22:00,
2013-08-27 02:52:00,57.0,49.0,-100.00,North,-999,0.0,0.0,76,-99.99,,,0.00,,2013-08-27 08:52:00,
2013-08-27 03:01:00,57.0,49.0,-100.00,North,-999,0.0,0.0,76,-99.99,,,0.00,,2013-08-27 09:01:00,
2013-08-27 03:11:00,57.0,49.0,-100.00,North,-999,0.0,0.0,76,-99.99,,,0.00,,2013-08-27 09:11:00,
2013-08-27 03:21:00,57.0,49.0,-100.00,North,-999,0.0,0.0,76,-99.99,,,0.00,,2013-08-27 09:21:00,
2013-08-27 05:12:00,50.0,46.0,-100.00,West,265,1.0,1.0,86,-99.99,,,-99.99,,2013-08-27 11:12:00,
2013-08-27 05:22:00,50.0,46.0,-100.00,West,265,1.0,1.0,86,-99.99,,,-99.99,,2013-08-27 11:22:00,
2013-08-27 06:52:00,49.0,45.0,-100.00,ESE,110,3.0,3.0,88,-99.99,,,0.00,,2013-08-27 12:52:00,
2013-08-27 07:01:00,49.0,45.0,-100.00,ESE,110,3.0,3.0,88,-99.99,,,0.00,,2013-08-27 13:01:00,
2013-08-27 07:22:00,49.0,45.0,-100.00,ESE,110,3.0,3.0,88,-99.99,,,0.00,,2013-08-27 13:22:00,
2013-08-27 07:52:00,50.0,46.0,-100.00,SSW,210,3.0,4.0,87,-99.99,,,0.00,,2013-08-27 13:52:00,
2013-08-27 08:02:00,50.0,46.0,-100.00,SSW,210,3.0,4.0,87,-99.99,,,0.00,,2013-08-27 14:02:00,
2013-08-27 08:11:00,50.0,46.0,-100.00,SSW,210,3.0,4.0,87,-99.99,,,0.00,,2013-08-27 14:11:00,
2013-08-27 08:22:00,50.0,46.0,-100.00,SSW,210,3.0,4.0,87,-99.99,,,0.00,,2013-08-27 14:22:00,
2013-08-27 11:13:00,72.0,50.0,-100.00,SE,135,9.0,12.0,45,-99.99,,,0.00,,2013-08-27 17:13:00,
2013-08-27 11:22:00,72.0,50.0,-100.00,SE,135,9.0,12.0,45,-99.99,,,0.00,,2013-08-27 17:22:00,
2013-08-27 12:53:00,84.0,46.0,-100.00,SSE,150,17.0,21.0,27,-99.99,,,0.00,,2013-08-27 18:53:00,
2013-08-27 13:01:00,84.0,46.0,-100.00,SSE,150,17.0,21.0,27,-99.99,,,0.00,,2013-08-27 19:01:00,
2013-08-27 13:11:00,84.0,46.0,-100.00,SSE,150,17.0,21.0,27,-99.99,,,0.00,,2013-08-27 19:11:00,
2013-08-27 13:22:00,84.0,46.0,-100.00,SSE,150,17.0,21.0,27,-99.99,,,0.00,,2013-08-27 19:22:00,
2013-08-27 13:52:00,87.0,45.0,-100.00,SSE,165,14.0,17.0,23,-99.99,,,-99.99,,2013-08-27 19:52:00,
2013-08-27 14:02:00,87.0,45.0,-100.00,SSE,165,14.0,17.0,23,-99.99,,,-99.99,,2013-08-27 20:02:00,
2013-08-27 14:11:00,87.0,45.0,-100.00,SSE,165,14.0,17.0,23,-99.99,,,-99.99,,2013-08-27 20:11:00,